{"data":{"norad_id":57795,"epoch":"2026-09-22T21:48:26.415648Z","epoch_age_seconds":98000,"freshness":"FRESH","line1":"1 57795U 23135D   26265.90863907 -.00000157  00000+0  11184-5 0  9993","line2":"2 57795  49.9722 101.5954 0013353 241.5177 118.4390 14.23183290158547","mean_motion":14.2318329,"eccentricity":0.0013353,"inclination_deg":49.9722,"raan_deg":101.5954,"arg_perigee_deg":241.5177,"mean_anomaly_deg":118.439,"bstar":1.1184e-6,"rev_number":15854,"period_min":101.18162643689,"perigee_km":805.00275970381,"apogee_km":824.21170244733,"semimajor_km":7192.7442310756,"source":"CELESTRAK","updated_at":"2026-09-23T09:00:18.383727Z"}}